| time (UTC) | temp F | wind direction | speed MPH | gust MPH | rain 1hr in | rain 24hr in | rain mn in | humidity % | barometer mb |
| 20260505183402 | 84 | 190 | 3.0 | 18.0 | 0.00 | 0.02 | 0.02 | 39 | 1007.1 |
| 20260505182858 | 84 | 248 | 2.0 | 12.0 | 0.00 | 0.02 | 0.02 | 36 | 1007.2 |
| 20260505182355 | 84 | 190 | 2.0 | 7.0 | 0.00 | 0.02 | 0.02 | 33 | 1007.3 |
| 20260505181851 | 84 | 265 | 2.0 | 12.0 | 0.00 | 0.02 | 0.02 | 35 | 1007.2 |
| 20260505181349 | 84 | 326 | 3.0 | 7.0 | 0.00 | 0.02 | 0.02 | 36 | 1007.5 |
| 20260505180845 | 84 | 255 | 0.0 | 6.0 | 0.00 | 0.02 | 0.02 | 36 | 1007.5 |
| 20260505180342 | 83 | 204 | 10.0 | 10.0 | 0.00 | 0.02 | 0.02 | 36 | 1007.7 |
| 20260505175839 | 83 | 220 | 4.0 | 10.0 | 0.00 | 0.02 | 0.02 | 37 | 1007.8 |
| 20260505175335 | 83 | 194 | 4.0 | 10.0 | 0.00 | 0.02 | 0.02 | 36 | 1007.6 |
| 20260505174831 | 83 | 201 | 9.0 | 15.0 | 0.00 | 0.02 | 0.02 | 35 | 1008.0 |
| 20260505174329 | 84 | 140 | 5.0 | 10.0 | 0.00 | 0.02 | 0.02 | 38 | 1007.9 |
| 20260505173825 | 83 | 258 | 2.0 | 11.0 | 0.00 | 0.02 | 0.02 | 39 | 1007.8 |
| 20260505173321 | 83 | 90 | 1.0 | 4.0 | 0.00 | 0.02 | 0.02 | 40 | 1007.7 |
| 20260505172819 | 82 | 306 | 0.0 | 8.0 | 0.00 | 0.02 | 0.02 | 42 | 1007.7 |
| 20260505172317 | 81 | 352 | 3.0 | 7.0 | 0.00 | 0.02 | 0.02 | 42 | 1007.7 |
| 20260505171815 | 81 | 28 | 0.0 | 14.0 | 0.00 | 0.02 | 0.02 | 43 | 1007.8 |
| 20260505171313 | 81 | 283 | 1.0 | 7.0 | 0.00 | 0.02 | 0.02 | 41 | 1008.1 |
| 20260505170809 | 82 | 132 | 0.0 | 7.0 | 0.00 | 0.02 | 0.02 | 43 | 1008.1 |
| 20260505170306 | 81 | 200 | 5.0 | 6.0 | 0.00 | 0.02 | 0.02 | 44 | 1007.9 |
| 20260505165801 | 80 | 204 | 2.0 | 11.0 | 0.00 | 0.02 | 0.02 | 44 | 1008.0 |
| 20260505165257 | 80 | 270 | 0.0 | 10.0 | 0.00 | 0.02 | 0.02 | 46 | 1008.1 |
| 20260505164753 | 80 | 150 | 7.0 | 9.0 | 0.00 | 0.02 | 0.02 | 46 | 1008.3 |
| 20260505164251 | 80 | 176 | 4.0 | 6.0 | 0.00 | 0.02 | 0.02 | 45 | 1008.5 |
| 20260505163749 | 80 | 232 | 0.0 | 9.0 | 0.00 | 0.02 | 0.02 | 46 | 1008.4 |
| 20260505163247 | 81 | 270 | 0.0 | 4.0 | 0.00 | 0.02 | 0.02 | 53 | 1008.5 |
| 20260505162744 | 80 | 278 | 0.0 | 5.0 | 0.00 | 0.02 | 0.02 | 50 | 1008.9 |
| 20260505162241 | 79 | 52 | 4.0 | 9.0 | 0.00 | 0.02 | 0.02 | 47 | 1008.7 |
| 20260505161738 | 79 | 129 | 9.0 | 12.0 | 0.00 | 0.02 | 0.02 | 47 | 1008.7 |
| 20260505161236 | 78 | 208 | 5.0 | 10.0 | 0.00 | 0.02 | 0.02 | 48 | 1008.9 |
| 20260505160733 | 78 | 354 | 1.0 | 5.0 | 0.00 | 0.02 | 0.02 | 52 | 1008.8 |
| 20260505160231 | 77 | 171 | 2.0 | 13.0 | 0.00 | 0.02 | 0.02 | 50 | 1008.8 |
| 20260505153210 | 77 | 21 | 0.0 | 11.0 | 0.00 | 0.02 | 0.02 | 48 | 1009.2 |
| 20260505152706 | 77 | 292 | 3.0 | 7.0 | 0.00 | 0.02 | 0.02 | 51 | 1009.1 |
| 20260505152202 | 77 | 209 | 0.0 | 6.0 | 0.00 | 0.02 | 0.02 | 54 | 1009.2 |
| 20260505151657 | 76 | 210 | 4.0 | 6.0 | 0.00 | 0.02 | 0.02 | 52 | 1009.2 |
| 20260505151156 | 76 | 172 | 3.0 | 4.0 | 0.00 | 0.02 | 0.02 | 52 | 1009.2 |
| 20260505150651 | 76 | 213 | 0.0 | 5.0 | 0.00 | 0.02 | 0.02 | 54 | 1009.3 |
| 20260505150148 | 76 | 182 | 0.0 | 6.0 | 0.00 | 0.02 | 0.02 | 52 | 1009.5 |
| 20260505140617 | 70 | 187 | 0.0 | 4.0 | 0.00 | 0.02 | 0.02 | 67 | 1009.8 |
| 20260505140114 | 70 | 270 | 0.0 | 6.0 | 0.00 | 0.02 | 0.02 | 60 | 1009.7 |
| 20260505125030 | 65 | 110 | 0.0 | 0.0 | 0.00 | 0.02 | 0.02 | 77 | 1010.2 |
| 20260505124527 | 65 | 90 | 0.0 | 2.0 | 0.00 | 0.02 | 0.02 | 80 | 1010.3 |
| 20260505124023 | 62 | 165 | 0.0 | 1.0 | 0.00 | 0.02 | 0.02 | 84 | 1010.5 |
| 20260505123520 | 62 | 173 | 0.0 | 1.0 | 0.00 | 0.02 | 0.02 | 83 | 1010.2 |
| 20260505123016 | 63 | 180 | 0.0 | 1.0 | 0.00 | 0.02 | 0.02 | 80 | 1010.2 |
| 20260505122513 | 64 | 90 | 0.0 | 2.0 | 0.00 | 0.02 | 0.02 | 78 | 1010.0 |
| 20260505122010 | 63 | 90 | 0.0 | 1.0 | 0.00 | 0.02 | 0.02 | 82 | 1010.2 |
| 20260505121507 | 61 | 114 | 0.0 | 1.0 | 0.00 | 0.02 | 0.02 | 81 | 1010.4 |
| 20260505121003 | 61 | 106 | 0.0 | 3.0 | 0.00 | 0.02 | 0.02 | 85 | 1010.3 |
| 20260505120500 | 59 | 131 | 2.0 | 3.0 | 0.00 | 0.02 | 0.02 | 86 | 1010.1 |
| 20260505115959 | 60 | 75 | 2.0 | 2.0 | 0.00 | 0.02 | 0.02 | 88 | 1010.3 |
| 20260505115455 | 57 | 99 | 0.0 | 2.0 | 0.00 | 0.02 | 0.02 | 94 | 1010.2 |
| 20260505114953 | 56 | 90 | 1.0 | 2.0 | 0.00 | 0.02 | 0.02 | 97 | 1010.2 |
| 20260505114449 | 55 | 106 | 1.0 | 2.0 | 0.00 | 0.02 | 0.02 | 99 | 1010.3 |
| 20260505113946 | 56 | 97 | 1.0 | 1.0 | 0.00 | 0.02 | 0.02 | 99 | 1010.3 |
| 20260505113442 | 54 | 123 | 0.0 | 1.0 | 0.00 | 0.02 | 0.02 | 99 | 1010.3 |
| 20260505112938 | 52 | 186 | 1.0 | 1.0 | 0.00 | 0.02 | 0.02 | 99 | 1010.2 |
| 20260505112436 | 52 | 172 | 0.0 | 2.0 | 0.00 | 0.02 | 0.02 | 99 | 1010.1 |
| 20260505111932 | 51 | 101 | 0.0 | 2.0 | 0.00 | 0.02 | 0.02 | 99 | 1010.0 |
| 20260505111426 | 50 | 120 | 0.0 | 1.0 | 0.00 | 0.02 | 0.02 | 99 | 1009.8 |
| 20260505110923 | 49 | 106 | 2.0 | 2.0 | 0.00 | 0.02 | 0.02 | 99 | 1009.7 |
| 20260505110420 | 49 | 98 | 0.0 | 1.0 | 0.00 | 0.02 | 0.02 | 99 | 1010.0 |
| 20260505101851 | 48 | 114 | 0.0 | 1.0 | 0.00 | 0.02 | 0.02 | 99 | 1009.8 |
| 20260505101346 | 49 | 157 | 0.0 | 1.0 | 0.00 | 0.02 | 0.02 | 99 | 1010.0 |
| 20260505100842 | 48 | 90 | 0.0 | 1.0 | 0.00 | 0.02 | 0.02 | 99 | 1009.8 |
| 20260505100338 | 48 | 106 | 0.0 | 2.0 | 0.00 | 0.02 | 0.02 | 99 | 1009.5 |
| 20260505095834 | 49 | 157 | 0.0 | 2.0 | 0.00 | 0.02 | 0.02 | 99 | 1009.7 |
| 20260505095332 | 49 | 105 | 0.0 | 2.0 | 0.00 | 0.02 | 0.02 | 99 | 1009.4 |
| 20260505094828 | 50 | 120 | 0.0 | 1.0 | 0.00 | 0.02 | 0.02 | 99 | 1009.4 |
| 20260505094325 | 50 | 97 | 0.0 | 1.0 | 0.00 | 0.02 | 0.02 | 99 | 1009.4 |
| 20260505093820 | 50 | 114 | 0.0 | 2.0 | 0.00 | 0.02 | 0.02 | 99 | 1009.3 |
| 20260505093318 | 50 | 32 | 1.0 | 3.0 | 0.00 | 0.02 | 0.02 | 99 | 1009.1 |
| 20260505092815 | 50 | 61 | 2.0 | 4.0 | 0.00 | 0.02 | 0.02 | 99 | 1009.3 |
| 20260505092313 | 50 | 279 | 0.0 | 2.0 | 0.00 | 0.02 | 0.02 | 99 | 1009.1 |
| 20260505091810 | 50 | 114 | 0.0 | 3.0 | 0.00 | 0.02 | 0.02 | 99 | 1009.3 |
| 20260505091308 | 50 | 174 | 0.0 | 0.0 | 0.00 | 0.02 | 0.02 | 99 | 1009.3 |
| 20260505090806 | 50 | 190 | 0.0 | 0.0 | 0.00 | 0.02 | 0.02 | 99 | 1009.2 |
| 20260505090304 | 50 | 185 | 1.0 | 3.0 | 0.00 | 0.02 | 0.02 | 99 | 1009.5 |
| 20260505085801 | 50 | 152 | 2.0 | 3.0 | 0.00 | 0.02 | 0.02 | 99 | 1009.6 |
| 20260505085259 | 50 | 120 | 0.0 | 2.0 | 0.00 | 0.02 | 0.02 | 99 | 1009.9 |
| 20260505084756 | 50 | 185 | 0.0 | 1.0 | 0.02 | 0.02 | 0.02 | 98 | 1010.0 |
| 20260505084255 | 50 | 117 | 0.0 | 0.0 | 0.02 | 0.02 | 0.02 | 98 | 1009.7 |
| 20260505083751 | 50 | 175 | 1.0 | 2.0 | 0.02 | 0.02 | 0.02 | 97 | 1009.7 |
| 20260505083248 | 50 | 75 | 0.0 | 2.0 | 0.09 | 0.02 | 0.02 | 97 | 1010.0 |
| 20260505082744 | 50 | 0 | 0.0 | 2.0 | 0.09 | 0.02 | 0.02 | 96 | 1010.1 |
| 20260505082242 | 50 | 81 | 2.0 | 3.0 | 0.02 | 0.00 | 0.00 | 95 | 1010.2 |
| 20260505081737 | 50 | 164 | 0.0 | 2.0 | 0.00 | 0.00 | 0.00 | 94 | 1009.6 |
| 20260505081235 | 49 | 140 | 0.0 | 2.0 | 0.00 | 0.00 | 0.00 | 94 | 1009.6 |
| 20260505080732 | 49 | 95 | 2.0 | 2.0 | 0.00 | 0.00 | 0.00 | 94 | 1009.3 |
| 20260505080227 | 49 | 84 | 0.0 | 2.0 | 0.00 | 0.00 | 0.00 | 94 | 1009.5 |
| 20260505075723 | 49 | 99 | 0.0 | 1.0 | 0.00 | 0.00 | 0.00 | 94 | 1009.5 |
| 20260505075221 | 49 | 99 | 0.0 | 0.0 | 0.00 | 0.00 | 0.00 | 93 | 1009.1 |
| 20260505074718 | 49 | 140 | 0.0 | 1.0 | 0.00 | 0.00 | 0.00 | 93 | 1009.2 |
| 20260505074215 | 49 | 99 | 0.0 | 1.0 | 0.00 | 0.00 | 0.00 | 93 | 1009.1 |
| 20260505073712 | 49 | 160 | 0.0 | 0.0 | 0.00 | 0.00 | 0.00 | 93 | 1009.2 |
| 20260505073210 | 49 | 154 | 1.0 | 3.0 | 0.00 | 0.00 | 0.00 | 93 | 1009.2 |
| 20260505072706 | 49 | 105 | 1.0 | 2.0 | 0.00 | 0.00 | 0.00 | 94 | 1009.0 |
| 20260505072203 | 49 | 105 | 0.0 | 0.0 | 0.00 | 0.00 | 0.00 | 93 | 1009.5 |
| 20260505071658 | 49 | 114 | 1.0 | 2.0 | 0.00 | 0.00 | 0.00 | 93 | 1009.0 |
| 20260505071156 | 49 | 106 | 0.0 | 0.0 | 0.00 | 0.00 | 0.00 | 93 | 1009.2 |
| 20260505070653 | 49 | 106 | 0.0 | 0.0 | 0.00 | 0.00 | 0.00 | 93 | 1009.2 |
| 20260505070149 | 49 | 106 | 0.0 | 0.0 | 0.00 | 0.00 | 0.00 | 93 | 1009.1 |
| 20260505065645 | 49 | 106 | 0.0 | 0.0 | 0.00 | 0.00 | 0.00 | 93 | 1009.3 |
| 20260505065142 | 49 | 106 | 0.0 | 0.0 | 0.00 | 0.00 | 0.00 | 93 | 1009.1 |
| 20260505064639 | 49 | 106 | 0.0 | 0.0 | 0.00 | 0.00 | 0.00 | 93 | 1009.2 |
| 20260505064137 | 49 | 106 | 0.0 | 1.0 | 0.00 | 0.00 | 0.00 | 93 | 1009.3 |
| 20260505063634 | 49 | 60 | 1.0 | 1.0 | 0.00 | 0.00 | 0.00 | 93 | 1009.2 |
| 20260505063130 | 49 | 98 | 1.0 | 2.0 | 0.00 | 0.00 | 0.00 | 93 | 1009.2 |
| 20260505062627 | 49 | 173 | 0.0 | 0.0 | 0.00 | 0.00 | 0.00 | 92 | 1009.2 |
| 20260505062124 | 48 | 157 | 0.0 | 2.0 | 0.00 | 0.00 | 0.00 | 92 | 1009.4 |
| 20260505061621 | 49 | 172 | 0.0 | 2.0 | 0.00 | 0.00 | 0.00 | 92 | 1009.4 |
| 20260505061119 | 48 | 117 | 0.0 | 0.0 | 0.00 | 0.00 | 0.00 | 93 | 1009.3 |
| 20260505060617 | 48 | 117 | 1.0 | 1.0 | 0.00 | 0.00 | 0.00 | 93 | 1009.4 |
| 20260505060113 | 48 | 99 | 0.0 | 0.0 | 0.00 | 0.00 | 0.00 | 93 | 1009.2 |
| 20260505055608 | 48 | 99 | 0.0 | 1.0 | 0.00 | 0.00 | 0.00 | 93 | 1009.3 |
| 20260505055105 | 48 | 172 | 0.0 | 1.0 | 0.00 | 0.00 | 0.00 | 93 | 1009.2 |
| 20260505054602 | 48 | 166 | 0.0 | 0.0 | 0.00 | 0.00 | 0.00 | 92 | 1009.4 |
| 20260505054101 | 48 | 157 | 0.0 | 0.0 | 0.00 | 0.00 | 0.00 | 93 | 1009.1 |
| 20260505053557 | 48 | 127 | 0.0 | 0.0 | 0.00 | 0.00 | 0.00 | 92 | 1009.3 |
| 20260505053054 | 48 | 127 | 0.0 | 2.0 | 0.00 | 0.00 | 0.00 | 91 | 1009.3 |
| 20260505052551 | 48 | 99 | 0.0 | 0.0 | 0.00 | 0.00 | 0.00 | 91 | 1009.3 |
| 20260505052049 | 49 | 106 | 0.0 | 2.0 | 0.00 | 0.00 | 0.00 | 90 | 1009.3 |
| 20260505051545 | 50 | 172 | 0.0 | 2.0 | 0.00 | 0.00 | 0.00 | 90 | 1009.2 |
| 20260505051043 | 49 | 145 | 0.0 | 1.0 | 0.00 | 0.00 | 0.00 | 90 | 1009.4 |
| 20260505050541 | 50 | 165 | 0.0 | 1.0 | 0.00 | 0.00 | 0.00 | 90 | 1009.3 |
| 20260505041509 | 50 | 165 | 0.0 | 1.0 | 0.00 | 0.00 | 0.00 | 90 | 1009.1 |
| 20260505041006 | 50 | 106 | 0.0 | 1.0 | 0.00 | 0.00 | 0.00 | 88 | 1008.9 |
| 20260505040503 | 50 | 114 | 0.0 | 0.0 | 0.00 | 0.00 | 0.00 | 89 | 1009.1 |
| 20260505040000 | 50 | 114 | 0.0 | 0.0 | 0.00 | 0.00 | 0.00 | 89 | 1009.3 |
| 20260505035456 | 50 | 114 | 0.0 | 0.0 | 0.00 | 0.00 | 0.00 | 87 | 1008.8 |
| 20260505034954 | 50 | 99 | 0.0 | 0.0 | 0.00 | 0.00 | 0.00 | 86 | 1009.0 |
| 20260505034450 | 51 | 114 | 0.0 | 1.0 | 0.00 | 0.00 | 0.00 | 86 | 1008.9 |
| 20260505033947 | 51 | 173 | 0.0 | 0.0 | 0.00 | 0.00 | 0.00 | 85 | 1008.7 |
| 20260505033444 | 52 | 180 | 0.0 | 0.0 | 0.00 | 0.00 | 0.00 | 84 | 1008.8 |
| 20260505032942 | 52 | 187 | 0.0 | 2.0 | 0.00 | 0.00 | 0.00 | 86 | 1008.8 |
| 20260505032439 | 51 | 106 | 0.0 | 0.0 | 0.00 | 0.00 | 0.00 | 86 | 1009.0 |
| 20260505031935 | 52 | 106 | 0.0 | 1.0 | 0.00 | 0.00 | 0.00 | 85 | 1008.8 |
| 20260505031432 | 52 | 90 | 0.0 | 0.0 | 0.00 | 0.00 | 0.00 | 84 | 1008.9 |
| 20260505030929 | 53 | 190 | 2.0 | 2.0 | 0.00 | 0.00 | 0.00 | 84 | 1008.9 |
| 20260505030425 | 53 | 188 | 0.0 | 2.0 | 0.00 | 0.00 | 0.00 | 83 | 1009.0 |
| 20260505025921 | 53 | 172 | 0.0 | 1.0 | 0.00 | 0.00 | 0.00 | 83 | 1009.0 |
| 20260505025418 | 53 | 187 | 0.0 | 0.0 | 0.00 | 0.00 | 0.00 | 82 | 1009.1 |
| 20260505024917 | 54 | 187 | 0.0 | 0.0 | 0.00 | 0.00 | 0.00 | 82 | 1009.1 |
| 20260505024414 | 54 | 195 | 0.0 | 2.0 | 0.00 | 0.00 | 0.00 | 81 | 1009.2 |
| 20260505023911 | 54 | 203 | 0.0 | 0.0 | 0.00 | 0.00 | 0.00 | 81 | 1009.2 |
| 20260505023408 | 53 | 172 | 0.0 | 1.0 | 0.00 | 0.00 | 0.00 | 83 | 1009.1 |
| 20260505022905 | 53 | 195 | 0.0 | 1.0 | 0.00 | 0.00 | 0.00 | 83 | 1009.2 |
| 20260505022403 | 53 | 180 | 0.0 | 2.0 | 0.00 | 0.00 | 0.00 | 82 | 1009.3 |
| 20260505021859 | 53 | 165 | 0.0 | 0.0 | 0.00 | 0.00 | 0.00 | 83 | 1009.1 |
| 20260505021356 | 54 | 194 | 1.0 | 2.0 | 0.00 | 0.00 | 0.00 | 83 | 1009.4 |
| 20260505020852 | 54 | 114 | 0.0 | 0.0 | 0.00 | 0.00 | 0.00 | 82 | 1009.5 |
| 20260505020347 | 54 | 106 | 0.0 | 0.0 | 0.00 | 0.00 | 0.00 | 81 | 1009.3 |
| 20260505015844 | 54 | 148 | 0.0 | 1.0 | 0.00 | 0.00 | 0.00 | 80 | 1009.2 |
| 20260505015341 | 54 | 180 | 0.0 | 0.0 | 0.00 | 0.00 | 0.00 | 80 | 1009.1 |
| 20260505014839 | 55 | 105 | 0.0 | 2.0 | 0.00 | 0.00 | 0.00 | 80 | 1009.2 |
| 20260505014336 | 54 | 99 | 0.0 | 0.0 | 0.00 | 0.00 | 0.00 | 80 | 1009.4 |
| 20260505013832 | 55 | 174 | 0.0 | 1.0 | 0.00 | 0.00 | 0.00 | 79 | 1009.0 |
| 20260505013329 | 55 | 180 | 1.0 | 1.0 | 0.00 | 0.00 | 0.00 | 80 | 1009.2 |
| 20260505012828 | 55 | 172 | 0.0 | 2.0 | 0.00 | 0.00 | 0.00 | 80 | 1009.2 |
| 20260505012326 | 55 | 186 | 0.0 | 2.0 | 0.00 | 0.00 | 0.00 | 79 | 1009.0 |
| 20260505011821 | 55 | 99 | 0.0 | 0.0 | 0.00 | 0.00 | 0.00 | 79 | 1009.0 |
| 20260505011318 | 55 | 172 | 0.0 | 1.0 | 0.00 | 0.00 | 0.00 | 78 | 1008.9 |
| 20260505010814 | 56 | 157 | 0.0 | 1.0 | 0.00 | 0.00 | 0.00 | 78 | 1008.8 |
| 20260505010310 | 56 | 180 | 0.0 | 1.0 | 0.00 | 0.00 | 0.00 | 76 | 1008.9 |
| 20260505005806 | 56 | 180 | 0.0 | 1.0 | 0.00 | 0.00 | 0.00 | 77 | 1008.6 |
| 20260505005304 | 57 | 174 | 1.0 | 2.0 | 0.00 | 0.00 | 0.00 | 77 | 1008.6 |
| 20260505004801 | 57 | 148 | 0.0 | 2.0 | 0.00 | 0.00 | 0.00 | 76 | 1008.6 |
| 20260505004256 | 57 | 151 | 0.0 | 2.0 | 0.00 | 0.00 | 0.00 | 75 | 1008.5 |
| 20260505003755 | 57 | 151 | 0.0 | 2.0 | 0.00 | 0.00 | 0.00 | 74 | 1008.8 |
| 20260505003252 | 58 | 157 | 2.0 | 2.0 | 0.00 | 0.00 | 0.00 | 74 | 1008.7 |
| 20260505002748 | 58 | 165 | 0.0 | 1.0 | 0.00 | 0.00 | 0.00 | 72 | 1008.5 |
| 20260505002245 | 59 | 180 | 0.0 | 1.0 | 0.00 | 0.00 | 0.00 | 71 | 1008.5 |
| 20260505001743 | 59 | 106 | 0.0 | 0.0 | 0.00 | 0.00 | 0.00 | 70 | 1008.4 |
| 20260505001240 | 60 | 180 | 0.0 | 2.0 | 0.00 | 0.00 | 0.00 | 69 | 1008.3 |
| 20260505000737 | 60 | 111 | 0.0 | 1.0 | 0.00 | 0.00 | 0.00 | 69 | 1008.4 |
| 20260505000235 | 61 | 151 | 0.0 | 2.0 | 0.00 | 0.00 | 0.00 | 67 | 1008.2 |
| 20260504235731 | 61 | 151 | 1.0 | 1.0 | 0.00 | 0.00 | 0.00 | 63 | 1008.0 |
| 20260504235228 | 61 | 151 | 0.0 | 2.0 | 0.00 | 0.00 | 0.00 | 66 | 1008.1 |
| 20260504234725 | 63 | 99 | 0.0 | 0.0 | 0.00 | 0.00 | 0.00 | 63 | 1008.2 |
| 20260504234222 | 63 | 180 | 0.0 | 2.0 | 0.00 | 0.00 | 0.00 | 62 | 1008.1 |
| 20260504233718 | 64 | 270 | 0.0 | 0.0 | 0.00 | 0.00 | 0.00 | 60 | 1008.0 |
| 20260504233214 | 65 | 126 | 0.0 | 1.0 | 0.00 | 0.00 | 0.00 | 59 | 1007.9 |
| 20260504232712 | 65 | 112 | 0.0 | 3.0 | 0.00 | 0.00 | 0.00 | 58 | 1008.0 |
| 20260504232208 | 65 | 165 | 0.0 | 2.0 | 0.00 | 0.00 | 0.00 | 57 | 1007.9 |
| 20260504231705 | 66 | 270 | 0.0 | 3.0 | 0.00 | 0.00 | 0.00 | 53 | 1008.0 |
| 20260504231201 | 66 | 342 | 1.0 | 2.0 | 0.00 | 0.00 | 0.00 | 53 | 1007.4 |
| 20260504230657 | 67 | 131 | 0.0 | 2.0 | 0.00 | 0.00 | 0.00 | 55 | 1007.4 |
| 20260504230156 | 68 | 283 | 0.0 | 4.0 | 0.00 | 0.00 | 0.00 | 52 | 1007.5 |
| 20260504225655 | 68 | 286 | 0.0 | 1.0 | 0.00 | 0.00 | 0.00 | 50 | 1007.7 |
| 20260504225150 | 69 | 279 | 0.0 | 0.0 | 0.00 | 0.00 | 0.00 | 47 | 1007.6 |
| 20260504224647 | 68 | 123 | 2.0 | 2.0 | 0.00 | 0.00 | 0.00 | 47 | 1007.5 |
| 20260504224144 | 69 | 151 | 0.0 | 1.0 | 0.00 | 0.00 | 0.00 | 47 | 1007.4 |
| 20260504223642 | 69 | 288 | 2.0 | 3.0 | 0.00 | 0.00 | 0.00 | 45 | 1007.5 |
| 20260504223137 | 70 | 206 | 0.0 | 3.0 | 0.00 | 0.00 | 0.00 | 42 | 1007.5 |
| 20260504222634 | 70 | 281 | 2.0 | 4.0 | 0.00 | 0.00 | 0.00 | 43 | 1007.6 |
| 20260504222131 | 69 | 331 | 0.0 | 0.0 | 0.00 | 0.00 | 0.00 | 47 | 1007.5 |
| 20260504221628 | 71 | 285 | 0.0 | 2.0 | 0.00 | 0.00 | 0.00 | 43 | 1007.6 |
| 20260504221120 | 71 | 283 | 0.0 | 6.0 | 0.00 | 0.00 | 0.00 | 47 | 1007.5 |
| 20260504220616 | 70 | 327 | 2.0 | 2.0 | 0.00 | 0.00 | 0.00 | 47 | 1007.8 |
| 20260504220114 | 71 | 180 | 2.0 | 3.0 | 0.00 | 0.00 | 0.00 | 43 | 1007.7 |
| 20260504215610 | 72 | 180 | 1.0 | 5.0 | 0.00 | 0.00 | 0.00 | 41 | 1007.7 |
| 20260504215108 | 72 | 297 | 2.0 | 5.0 | 0.00 | 0.00 | 0.00 | 41 | 1007.8 |
| 20260504214603 | 73 | 186 | 1.0 | 4.0 | 0.00 | 0.00 | 0.00 | 39 | 1007.7 |
| 20260504214100 | 74 | 199 | 2.0 | 3.0 | 0.00 | 0.00 | 0.00 | 39 | 1007.6 |
| 20260504213556 | 74 | 289 | 1.0 | 2.0 | 0.00 | 0.00 | 0.00 | 40 | 1007.6 |
| 20260504213053 | 74 | 151 | 0.0 | 1.0 | 0.00 | 0.00 | 0.00 | 43 | 1007.6 |
| 20260504212549 | 74 | 266 | 0.0 | 3.0 | 0.00 | 0.00 | 0.00 | 40 | 1007.6 |
| 20260504212047 | 73 | 322 | 2.0 | 3.0 | 0.00 | 0.00 | 0.00 | 39 | 1007.9 |
| 20260504211543 | 73 | 292 | 0.0 | 5.0 | 0.00 | 0.00 | 0.00 | 39 | 1008.1 |
| 20260504211040 | 74 | 216 | 5.0 | 5.0 | 0.00 | 0.00 | 0.00 | 38 | 1007.9 |
| 20260504210537 | 75 | 168 | 1.0 | 3.0 | 0.00 | 0.00 | 0.00 | 36 | 1007.8 |
| 20260504210034 | 74 | 285 | 0.0 | 10.0 | 0.00 | 0.00 | 0.00 | 38 | 1007.9 |
| 20260504205532 | 74 | 178 | 4.0 | 6.0 | 0.00 | 0.00 | 0.00 | 36 | 1008.1 |
| 20260504205029 | 74 | 45 | 3.0 | 6.0 | 0.00 | 0.00 | 0.00 | 38 | 1008.0 |
| 20260504204527 | 74 | 200 | 1.0 | 5.0 | 0.00 | 0.00 | 0.00 | 38 | 1008.1 |
| 20260504204026 | 73 | 152 | 3.0 | 9.0 | 0.00 | 0.00 | 0.00 | 38 | 1008.3 |
| 20260504203524 | 74 | 131 | 3.0 | 8.0 | 0.00 | 0.00 | 0.00 | 37 | 1008.5 |
| 20260504203021 | 75 | 198 | 3.0 | 5.0 | 0.00 | 0.00 | 0.00 | 38 | 1008.2 |
| 20260504202516 | 75 | 0 | 0.0 | 4.0 | 0.00 | 0.00 | 0.00 | 37 | 1008.3 |
| 20260504202014 | 74 | 205 | 12.0 | 12.0 | 0.00 | 0.00 | 0.00 | 39 | 1008.2 |
| 20260504201511 | 75 | 209 | 0.0 | 7.0 | 0.00 | 0.00 | 0.00 | 37 | 1008.4 |
| 20260504201009 | 74 | 315 | 2.0 | 6.0 | 0.00 | 0.00 | 0.00 | 38 | 1008.7 |
| 20260504200504 | 74 | 131 | 0.0 | 5.0 | 0.00 | 0.00 | 0.00 | 38 | 1008.2 |
| 20260504200001 | 74 | 186 | 3.0 | 8.0 | 0.00 | 0.00 | 0.00 | 37 | 1008.4 |
| 20260504195456 | 74 | 180 | 0.0 | 4.0 | 0.00 | 0.00 | 0.00 | 38 | 1008.3 |
| 20260504194953 | 73 | 172 | 2.0 | 11.0 | 0.00 | 0.00 | 0.00 | 38 | 1008.6 |
| 20260504194449 | 73 | 201 | 0.0 | 11.0 | 0.00 | 0.00 | 0.00 | 39 | 1008.6 |
| 20260504193945 | 73 | 203 | 4.0 | 18.0 | 0.00 | 0.00 | 0.00 | 37 | 1008.7 |
| 20260504193443 | 74 | 191 | 2.0 | 3.0 | 0.00 | 0.00 | 0.00 | 37 | 1008.7 |
| 20260504192942 | 74 | 310 | 0.0 | 6.0 | 0.00 | 0.00 | 0.00 | 41 | 1008.8 |
| 20260504192438 | 74 | 257 | 1.0 | 4.0 | 0.00 | 0.00 | 0.00 | 38 | 1008.7 |
| 20260504191937 | 73 | 194 | 3.0 | 6.0 | 0.00 | 0.00 | 0.00 | 40 | 1008.7 |
| 20260504191435 | 73 | 311 | 0.0 | 7.0 | 0.00 | 0.00 | 0.00 | 39 | 1008.8 |
| 20260504190930 | 71 | 169 | 2.0 | 5.0 | 0.00 | 0.00 | 0.00 | 43 | 1008.9 |
| 20260504190426 | 71 | 290 | 0.0 | 6.0 | 0.00 | 0.00 | 0.00 | 40 | 1008.7 |
| 20260504185923 | 71 | 354 | 1.0 | 6.0 | 0.00 | 0.00 | 0.00 | 40 | 1008.9 |
| 20260504185421 | 73 | 278 | 2.0 | 4.0 | 0.00 | 0.00 | 0.00 | 39 | 1008.8 |
| 20260504184916 | 73 | 225 | 2.0 | 11.0 | 0.00 | 0.00 | 0.00 | 38 | 1009.1 |
| 20260504184412 | 74 | 284 | 3.0 | 5.0 | 0.00 | 0.00 | 0.00 | 43 | 1009.1 |
| 20260504183908 | 74 | 169 | 0.0 | 6.0 | 0.00 | 0.00 | 0.00 | 44 | 1009.2 |